This is the latest recevied weather packets stored in our database for station/object W0WC. If no packets are shown the sender has not sent any weather packets the latest 10 day(s).
| Time | Temp. | Humidity | Pressure | Rain* | Wind** | Luminosity | Snow |
|---|---|---|---|---|---|---|---|
| 1777571499 | 18.89° C | 37% | 1018.6 hPa | 0 mm | - | 678 W/m² | - |
| 1777571196 | 18.33° C | 34% | 1018.8 hPa | 0 mm | - | 594 W/m² | - |
| 1777570891 | 18.33° C | 37% | 1018.8 hPa | 0 mm | - | 568 W/m² | - |
| 1777570587 | 17.78° C | 38% | 1019 hPa | 0 mm | - | 765 W/m² | - |
| 1777570285 | 18.33° C | 36% | 1019.1 hPa | 0 mm | - | 656 W/m² | - |
| 1777569980 | 17.78° C | 37% | 1019.3 hPa | 0 mm | - | 612 W/m² | - |
| 1777569676 | 17.78° C | 35% | 1019.2 hPa | 0 mm | - | 788 W/m² | - |
| 1777569372 | 18.33° C | 36% | 1019.3 hPa | 0 mm | - | 749 W/m² | - |
| 1777569069 | 17.78° C | 39% | 1019.5 hPa | 0 mm | - | 779 W/m² | - |
| 1777568766 | 18.33° C | 40% | 1019.7 hPa | 0 mm | - | 735 W/m² | - |
| 1777568463 | 17.78° C | 41% | 1019.7 hPa | 0 mm | - | 706 W/m² | - |
| 1777568160 | 17.22° C | 40% | 1019.7 hPa | 0 mm | - | 607 W/m² | - |
| 1777567856 | 17.22° C | 40% | 1019.7 hPa | 0 mm | - | 652 W/m² | - |
| 1777567552 | 16.67° C | 43% | 1019.7 hPa | 0 mm | - | 606 W/m² | - |
| 1777567250 | 17.22° C | 41% | 1019.8 hPa | 0 mm | - | 558 W/m² | - |
| 1777566949 | 16.67° C | 42% | 1019.8 hPa | 0 mm | - | 588 W/m² | - |
| 1777566646 | 16.67° C | 43% | 1019.9 hPa | 0 mm | - | 689 W/m² | - |
| 1777566343 | 16.11° C | 41% | 1019.9 hPa | 0 mm | - | 670 W/m² | - |
| 1777566041 | 16.11° C | 42% | 1019.9 hPa | 0 mm | - | 583 W/m² | - |
| 1777565736 | 16.11° C | 45% | 1020.1 hPa | 0 mm | - | 430 W/m² | - |
| 1777565432 | 16.11° C | 43% | 1019.9 hPa | 0 mm | - | 460 W/m² | - |
| 1777565129 | 16.11° C | 44% | 1020 hPa | 0 mm | - | 413 W/m² | - |
| 1777564825 | 16.67° C | 45% | 1019.9 hPa | 0 mm | - | 423 W/m² | - |
| 1777564520 | 16.11° C | 43% | 1019.9 hPa | 0 mm | - | 432 W/m² | - |
| 1777564215 | 16.11° C | 45% | 1019.8 hPa | 0 mm | - | 495 W/m² | - |
* Rain latest hour (hover to see other rain measurements)
** Current wind speed in m/s (hover to see current wind gust speed)